• In Hungary
  • List of Countries
  • For 7 days
  • Water Temperature
  • Satellite Maps
  • Weather Map
  • News
  • Weather Widgets
  • user-avatar
    Login

    Hourly Weather Saratovka

    Today, 19 July, Thursday

    Time Temperature Precipitation Wind Pressure Humidity
    00:00 +25°C° 0 mm 2 mps 743 mmHg 55%
    01:00 +24°C° 0 mm 2 mps 743 mmHg 57%
    02:00 +24°C° 0 mm 2 mps 743 mmHg 59%
    03:00 +23°C° 0 mm 2 mps 743 mmHg 61%
    04:00 +23°C° 0 mm 1 mps 743 mmHg 63%
    05:00 +24°C° 0 mm 1 mps 743 mmHg 60%
    06:00 +25°C° 0 mm 1 mps 743 mmHg 57%
    07:00 +27°C° 0 mm 1 mps 744 mmHg 54%
    08:00 +29°C° 0 mm 1 mps 744 mmHg 48%
    09:00 +30°C° 0 mm 1 mps 744 mmHg 42%
    10:00 +30°C° 0 mm 0 mps 744 mmHg 37%
    11:00 +33°C° 0 mm 1 mps 744 mmHg 34%
    12:00 +33°C° 0 mm 1 mps 744 mmHg 31%
    13:00 +34°C° 0 mm 1 mps 744 mmHg 28%
    14:00 +34°C° 0 mm 1 mps 744 mmHg 29%
    15:00 +34°C° 0 mm 1 mps 744 mmHg 30%
    16:00 +34°C° 0 mm 1 mps 744 mmHg 31%
    17:00 +33°C° 0 mm 1 mps 744 mmHg 33%
    18:00 +33°C° 0 mm 1 mps 744 mmHg 36%
    19:00 +32°C° 0 mm 1 mps 744 mmHg 39%
    20:00 +31°C° 0 mm 2 mps 744 mmHg 42%
    21:00 +29°C° 0 mm 2 mps 744 mmHg 45%
    22:00 +28°C° 0 mm 3 mps 744 mmHg 48%
    23:00 +27°C° 0 mm 3 mps 744 mmHg 52%

    Tomorrow, 20 July, Friday

    Time Temperature Precipitation Wind Pressure Humidity
    00:00 +26°C° 0 mm 3 mps 744 mmHg 56%
    01:00 +25°C° 0 mm 3 mps 744 mmHg 60%
    02:00 +25°C° 0 mm 3 mps 744 mmHg 61%
    03:00 +25°C° 0 mm 3 mps 744 mmHg 62%
    04:00 +24°C° 0 mm 3 mps 744 mmHg 63%
    05:00 +25°C° 0 mm 3 mps 744 mmHg 61%
    06:00 +26°C° 0 mm 3 mps 744 mmHg 59%
    07:00 +27°C° 0 mm 3 mps 744 mmHg 57%
    08:00 +29°C° 0 mm 4 mps 744 mmHg 51%
    09:00 +32°C° 0 mm 4 mps 744 mmHg 45%
    10:00 +34°C° 0 mm 4 mps 745 mmHg 39%
    11:00 +34°C° 0 mm 3 mps 744 mmHg 37%
    12:00 +35°C° 0 mm 3 mps 744 mmHg 34%
    13:00 +35°C° 0 mm 2 mps 744 mmHg 32%
    14:00 +35°C° 0.1 mm 2 mps 744 mmHg 35%
    15:00 +34°C° 0.1 mm 2 mps 744 mmHg 37%
    16:00 +32°C° 0.1 mm 2 mps 744 mmHg 40%
    17:00 +32°C° 0.2 mm 2 mps 744 mmHg 43%
    18:00 +31°C° 0.2 mm 2 mps 744 mmHg 46%
    19:00 +30°C° 0.2 mm 3 mps 744 mmHg 50%
    20:00 +29°C° 0 mm 3 mps 744 mmHg 53%
    21:00 +28°C° 0 mm 3 mps 744 mmHg 57%
    22:00 +27°C° 0 mm 3 mps 744 mmHg 60%
    23:00 +26°C° 0.1 mm 3 mps 744 mmHg 62%

    Day after tomorrow, 21 July, Saturday

    Time Temperature Precipitation Wind Pressure Humidity
    00:00 +26°C° 0.1 mm 3 mps 744 mmHg 65%
    01:00 +25°C° 0.1 mm 3 mps 744 mmHg 67%
    02:00 +25°C° 0 mm 3 mps 744 mmHg 69%
    03:00 +23°C° 0 mm 4 mps 744 mmHg 71%
    04:00 +23°C° 0 mm 4 mps 744 mmHg 74%
    05:00 +23°C° 0 mm 4 mps 744 mmHg 73%
    06:00 +25°C° 0 mm 5 mps 744 mmHg 73%
    07:00 +25°C° 0 mm 5 mps 744 mmHg 72%
    08:00 +27°C° 0 mm 5 mps 744 mmHg 66%
    09:00 +28°C° 0 mm 5 mps 744 mmHg 60%
    10:00 +30°C° 0 mm 5 mps 744 mmHg 53%
    11:00 +32°C° 0 mm 5 mps 744 mmHg 49%
    12:00 +33°C° 0 mm 5 mps 744 mmHg 44%
    13:00 +34°C° 0 mm 5 mps 744 mmHg 40%
    14:00 +34°C° 0 mm 5 mps 744 mmHg 40%
    15:00 +34°C° 0 mm 5 mps 744 mmHg 41%
    16:00 +34°C° 0 mm 5 mps 743 mmHg 41%
    17:00 +33°C° 0 mm 5 mps 743 mmHg 46%
    18:00 +32°C° 0 mm 5 mps 743 mmHg 51%
    19:00 +30°C° 0 mm 5 mps 743 mmHg 56%
    20:00 +29°C° 0 mm 5 mps 743 mmHg 60%
    21:00 +27°C° 0 mm 5 mps 743 mmHg 65%
    22:00 +26°C° 0 mm 5 mps 743 mmHg 69%
    23:00 +26°C° 0 mm 5 mps 743 mmHg 70%

    22 July, Sunday

    Time Temperature Precipitation Wind Pressure Humidity
    00:00 +25°C° 0 mm 5 mps 743 mmHg 71%
    01:00 +25°C° 0 mm 5 mps 743 mmHg 71%
    02:00 +24°C° 0 mm 6 mps 743 mmHg 73%
    03:00 +23°C° 0 mm 6 mps 743 mmHg 74%
    04:00 +22°C° 0 mm 6 mps 743 mmHg 75%
    05:00 +23°C° 0 mm 7 mps 743 mmHg 74%
    06:00 +23°C° 0 mm 7 mps 743 mmHg 73%
    07:00 +23°C° 0 mm 8 mps 743 mmHg 72%
    08:00 +24°C° 0 mm 7 mps 743 mmHg 69%
    09:00 +26°C° 0 mm 7 mps 743 mmHg 65%
    10:00 +28°C° 0 mm 7 mps 743 mmHg 61%
    11:00 +28°C° 0 mm 7 mps 743 mmHg 58%
    12:00 +29°C° 0 mm 8 mps 743 mmHg 56%
    13:00 +31°C° 0 mm 8 mps 743 mmHg 53%
    14:00 +31°C° 0 mm 8 mps 743 mmHg 51%
    15:00 +32°C° 0 mm 8 mps 743 mmHg 49%
    16:00 +32°C° 0 mm 7 mps 743 mmHg 47%
    17:00 +32°C° 0 mm 7 mps 743 mmHg 49%
    18:00 +30°C° 0 mm 7 mps 743 mmHg 50%
    19:00 +30°C° 0 mm 7 mps 744 mmHg 52%
    20:00 +29°C° 0 mm 7 mps 744 mmHg 53%
    21:00 +28°C° 0 mm 8 mps 744 mmHg 53%
    22:00 +26°C° 0 mm 8 mps 744 mmHg 54%
    23:00 +24°C° 0 mm 8 mps 744 mmHg 53%

    23 July, Monday

    Time Temperature Precipitation Wind Pressure Humidity
    00:00 +24°C° 0 mm 8 mps 745 mmHg 51%
    01:00 +23°C° 0 mm 9 mps 745 mmHg 50%
    02:00 +22°C° 0 mm 8 mps 745 mmHg 49%
    03:00 +21°C° 0 mm 8 mps 745 mmHg 49%
    04:00 +21°C° 0 mm 8 mps 746 mmHg 48%
    05:00 +21°C° 0 mm 8 mps 746 mmHg 49%
    06:00 +21°C° 0 mm 8 mps 746 mmHg 50%
    07:00 +21°C° 0 mm 8 mps 747 mmHg 51%
    08:00 +22°C° 0 mm 8 mps 747 mmHg 48%
    09:00 +23°C° 0 mm 8 mps 747 mmHg 46%
    10:00 +26°C° 0 mm 8 mps 747 mmHg 43%
    11:00 +27°C° 0 mm 8 mps 747 mmHg 39%
    12:00 +28°C° 0 mm 8 mps 747 mmHg 36%
    13:00 +29°C° 0 mm 8 mps 747 mmHg 32%
    14:00 +29°C° 0 mm 8 mps 747 mmHg 31%
    15:00 +31°C° 0 mm 8 mps 747 mmHg 29%
    16:00 +31°C° 0 mm 8 mps 747 mmHg 28%
    17:00 +29°C° 0 mm 7 mps 747 mmHg 30%
    18:00 +28°C° 0 mm 7 mps 747 mmHg 32%
    19:00 +27°C° 0 mm 6 mps 747 mmHg 35%
    20:00 +26°C° 0 mm 6 mps 748 mmHg 37%
    21:00 +24°C° 0 mm 7 mps 748 mmHg 38%
    22:00 +22°C° 0 mm 7 mps 748 mmHg 40%
    23:00 +22°C° 0 mm 7 mps 748 mmHg 41%

    24 July, Tuesday

    Time Temperature Precipitation Wind Pressure Humidity
    00:00 +21°C° 0 mm 7 mps 749 mmHg 41%
    01:00 +20°C° 0 mm 7 mps 749 mmHg 42%
    02:00 +20°C° 0 mm 7 mps 749 mmHg 43%
    03:00 +18°C° 0 mm 7 mps 749 mmHg 44%
    04:00 +18°C° 0 mm 7 mps 749 mmHg 45%
    05:00 +18°C° 0 mm 7 mps 749 mmHg 45%
    06:00 +20°C° 0 mm 7 mps 750 mmHg 45%
    07:00 +20°C° 0 mm 8 mps 750 mmHg 45%
    08:00 +22°C° 0 mm 8 mps 750 mmHg 41%
    09:00 +23°C° 0 mm 7 mps 751 mmHg 37%
    10:00 +26°C° 0 mm 7 mps 751 mmHg 34%
    11:00 +27°C° 0 mm 7 mps 751 mmHg 32%
    12:00 +28°C° 0 mm 7 mps 751 mmHg 30%
    13:00 +29°C° 0 mm 7 mps 751 mmHg 29%
    14:00 +29°C° 0 mm 6 mps 750 mmHg 28%
    15:00 +29°C° 0 mm 6 mps 750 mmHg 28%
    16:00 +30°C° 0 mm 6 mps 750 mmHg 28%
    17:00 +29°C° 0 mm 6 mps 750 mmHg 31%
    18:00 +28°C° 0 mm 5 mps 750 mmHg 34%
    19:00 +27°C° 0 mm 5 mps 750 mmHg 36%
    20:00 +26°C° 0 mm 5 mps 750 mmHg 40%
    21:00 +23°C° 0 mm 5 mps 751 mmHg 44%
    22:00 +22°C° 0 mm 5 mps 751 mmHg 48%
    23:00 +21°C° 0 mm 5 mps 751 mmHg 48%
    Show more